Location: Driftpile
(55.3500°N, 115.7667°W)
Time: 08:17:22
(UTC+00:00)

N. Korean satellite - Pass Details

Date: 30 November 2021
Orbit: 447 x 490 km, 97.3° (Epoch: 26 January)

Event Time Altitude Azimuth Distance (km) Brightness Sun altitude
Rises 00:07:32 0° 173° (S) 2,543 10.5 -6.5°
Reaches altitude 10° 00:09:37 10° 177° (S) 1,661 9.6 -6.8°
Maximum altitude 00:13:09 60° 258° (WSW) 553 7.2 -7.2°
Drops below altitude 10° 00:16:40 10° 340° (NNW) 1,647 9.2 -7.7°
Sets 00:18:44 0° 344° (NNW) 2,521 10.1 -7.9°
